sat.trackr.live / text

‹ back to catalog

STARLINK-3073

NORAD 49135 · 2021-082F

PAYLOAD ACTIVE UNKNOWN

§ Identity

Operator
Country
US
Launch date
2021-09-14
Launch site
AFWTR
Launch vehicle
Mass (kg)
RCS (m²)

Purposes: comms

External: N2YO · Heavens-Above · Gunter

§ Orbital elements

Epoch: 2026-09-14T10:03:12.637728Z

Period
96.11 min
Inclination
69.9992°
Eccentricity
0.0002862
Mean motion
14.98332055 rev/d
Perigee alt
570.1 km
Apogee alt
574.0 km
Semi-major
6,950.2 km
B*
2.4242e-5
RAAN
138.5869°
Arg perigee
267.3211°
Mean anomaly
92.7620°
Rev number
27,524

§ Raw data

STARLINK-30731 49135U 21082F   26257.41889627  .00000196  00000+0  24242-4 0  99952 49135  69.9992 138.5869 0002862 267.3211  92.7620 14.98332055275244

JSON: /api/v1/satellites/49135 · /tle

For live sub-satellite position, see the globe view (requires WebGL).

§ Visibility from observer

Set your observer location to see the next 7 days of passes ≥ 10°. The values pass through the URL so the page stays shareable.

No JS? Fill the form by hand. The geolocation button needs JavaScript.